Location: Cassano d�Adda
(45.5333°N, 9.5167°E)
Time: 08:35:02
(UTC+00:00)

BREEZE-M DEB (TANK) - Pass Details

Date: 08 December 2019
Orbit: 321 x 13106 km, 49.6° (Epoch: 19 January)

Event Time Altitude Azimuth Distance (km) Brightness Sun altitude
Rises 16:32:48 0° 293° (WNW) 3,154 7.4 -9.3°
Reaches altitude 10° 16:35:46 10° 290° (WNW) 1,641 6.0 -9.7°
Maximum altitude 16:38:43 59° 210° (SSW) 396 2.4 -10.2°
Drops below altitude 10° 16:40:56 10° 128° (SE) 1,238 4.3 -10.6°
Enters shadow 16:41:46 - 125° (SE) 1,666 5.0 -10.7°
